427  
ASUS45 KREV 221610  
RWRNV  
NEVADA REGIONAL WEATHER ROUNDUP  
NATIONAL WEATHER SERVICE RENO NV  
800 AM PST TUE JAN 22 2019  
 
NOTE: "FAIR" INDICATES FEW OR NO CLOUDS BELOW 12,000 FEET WITH NO  
SIGNIFICANT WEATHER AND/OR S TO VISIBILITY
.  
 
NVZ001-003-004-221700-  
WESTERN NEVADA  
 
CITY SKY/WX TMP DP RH WIND PRES REMARKS
 
RENO PTCLDY 24 17 74 VRB3 30.46S  
CARSON CITY FAIR 21 18 86 NW5 30.46R  
MINDEN FAIR 19 18 93 E3 30.46S  
SLIDE MTN N/A 16 0 48 MISG N/A  
PYRAMID LAKE N/A 32 N/A N/A SW6 N/A  
FALLON PTCLDY 20 18 92 S5 30.48R  
LOVELOCK MOCLDY 20 17 88 CALM 30.47R  
HAWTHORNE CLEAR 23 18 80 SW3 30.48R  

 
 
NVZ002-CAZ072-073-221700-  
NORTHERN AND CENTRAL SIERRA  
 
CITY SKY/WX TMP DP RH WIND PRES REMARKS
 
S. LAKE TAHOE PTCLDY 9 6 88 CALM 30.35F  
TRUCKEE MOCLDY 7 1 78 CALM 30.40  
SQUAW VLY 8000 N/A 16 14 93 NW13 N/A  
BLUE CANYON PTCLDY 32 9 38 NE9 30.28R  
MAMMOTH LAKES FAIR 13 -4 47 NW7 30.37R  
BRIDGEPORT FAIR 6 -4 63 CALM 30.39R  

 
 
NVZ030-031-036-221700-  
NORTHERN NEVADA  
 
CITY SKY/WX TMP DP RH WIND PRES REMARKS
 
ELKO PTCLDY 14 9 80 CALM 30.42R  
WINNEMUCCA MOCLDY 17 13 84 SE7 30.46R  
WENDOVER CLEAR 28 13 53 NW21G29 30.36R  

 
 
NVZ035-037-221700-  
CENTRAL NEVADA  
 
CITY SKY/WX TMP DP RH WIND PRES REMARKS
 
ELY MOSUNNY 1 -3 83 E3 30.33R  
EUREKA N/A -1 -4 87 E8 30.40R  

 
 
NVZ013-014-221700-  
SOUTH CENTRAL NEVADA  
 
CITY SKY/WX TMP DP RH WIND PRES REMARKS
 
TONOPAH PTCLDY 25 11 55 N14G23 30.38R  

 
 
NVZ017-020-022-221700-  
SOUTHERN NEVADA  
 
CITY SKY/WX TMP DP RH WIND PRES REMARKS
 
LAS VEGAS SUNNY 43 14 31 N22 30.31R  
N. LAS VEGAS SUNNY 42 14 32 N20G28 30.31R  
NELLIS AFB SUNNY 43 14 30 NW13 30.34R  
HENDERSON SUNNY 41 14 33 N16 30.33R  
MERCURY NOT AVBL  

 
 
 
CLICK HERE TO GO TO PREVIOUS BULLETINS.

The Nexlab NV Page Main Text Page